CTN850 LDZA-EDDF

Flight info

Callsign CTN850
Flight time 1h 12m
Altitude 36000
Route OBUTI DCT SIMBA DCT AKINI T161 DEBHI DEBHI1B
Aircraft A319/M-SDE3FGHIRWY/LB1

Departure

Time 2026-04-14 06:21
Airport Zagreb Franjo Tuđman International Airport (LDZA)

Arrival

Time 2026-04-14 07:33
Airport Frankfurt Main Airport (EDDF)
Time Latitude Longitude Altitude Speed Heading
2026-04-14 06:05 45.74177 16.07840 359 ft 0 kts 136°
2026-04-14 06:11 45.74192 16.07819 366 ft 4 kts 136°
2026-04-14 06:11 45.74211 16.07793 363 ft 4 kts 136°
2026-04-14 06:11 45.74231 16.07767 364 ft 4 kts 144°
2026-04-14 06:11 45.74249 16.07756 359 ft 4 kts 216°
2026-04-14 06:12 45.74262 16.07773 359 ft 1 kts 226°
2026-04-14 06:14 45.74258 16.07768 359 ft 1 kts 226°
2026-04-14 06:14 45.74248 16.07751 362 ft 3 kts 226°
2026-04-14 06:14 45.74230 16.07725 359 ft 4 kts 226°
2026-04-14 06:15 45.74207 16.07690 359 ft 5 kts 226°
2026-04-14 06:15 45.74178 16.07646 359 ft 7 kts 226°
2026-04-14 06:15 45.74138 16.07585 359 ft 10 kts 227°
2026-04-14 06:15 45.74087 16.07508 359 ft 11 kts 226°
2026-04-14 06:16 45.74061 16.07423 359 ft 9 kts 289°
2026-04-14 06:16 45.74104 16.07356 359 ft 9 kts 316°
2026-04-14 06:16 45.74150 16.07294 359 ft 9 kts 317°
2026-04-14 06:16 45.74197 16.07231 359 ft 9 kts 317°
2026-04-14 06:17 45.74213 16.07150 363 ft 10 kts 240°
2026-04-14 06:17 45.74153 16.07061 359 ft 15 kts 226°
2026-04-14 06:17 45.74073 16.06940 359 ft 19 kts 226°
2026-04-14 06:17 45.73983 16.06802 362 ft 19 kts 227°
2026-04-14 06:18 45.73892 16.06664 362 ft 19 kts 226°
2026-04-14 06:18 45.73812 16.06542 363 ft 12 kts 226°
2026-04-14 06:18 45.73765 16.06470 361 ft 7 kts 227°
2026-04-14 06:18 45.73739 16.06425 359 ft 6 kts 244°
2026-04-14 06:19 45.73753 16.06379 360 ft 5 kts 309°
2026-04-14 06:19 45.73777 16.06346 360 ft 4 kts 316°
2026-04-14 06:19 45.73797 16.06319 360 ft 4 kts 319°
2026-04-14 06:19 45.73814 16.06298 360 ft 4 kts 318°
2026-04-14 06:20 45.73834 16.06272 364 ft 3 kts 317°
2026-04-14 06:20 45.73857 16.06244 365 ft 5 kts 323°
2026-04-14 06:20 45.73888 16.06259 361 ft 5 kts 45°
2026-04-14 06:20 45.73952 16.06357 361 ft 40 kts 46°
2026-04-14 06:21 45.74327 16.06926 361 ft 114 kts 47°
2026-04-14 06:21 45.74987 16.07922 583 ft 145 kts 46°
2026-04-14 06:21 45.75665 16.08955 1275 ft 143 kts 46°
2026-04-14 06:21 45.76338 16.09979 2028 ft 140 kts 45°
2026-04-14 06:22 45.76776 16.10647 2514 ft 139 kts 46°
2026-04-14 06:22 45.77436 16.11654 3209 ft 139 kts 47°
2026-04-14 06:22 45.78113 16.12688 3741 ft 150 kts 49°
2026-04-14 06:22 45.78878 16.13860 4135 ft 172 kts 49°
2026-04-14 06:23 45.79738 16.15186 4546 ft 192 kts 49°
2026-04-14 06:23 45.81024 16.17156 5191 ft 210 kts 49°
2026-04-14 06:23 45.81720 16.18214 5428 ft 226 kts 49°
2026-04-14 06:23 45.83258 16.20564 5950 ft 260 kts 49°
2026-04-14 06:24 45.84109 16.21865 6369 ft 270 kts 49°
2026-04-14 06:24 45.85430 16.23885 6926 ft 288 kts 49°
2026-04-14 06:24 45.86855 16.26068 7364 ft 309 kts 49°
2026-04-14 06:24 45.88342 16.28346 8119 ft 316 kts 49°
2026-04-14 06:25 45.89829 16.30708 8949 ft 321 kts 53°
2026-04-14 06:25 45.91185 16.33272 9802 ft 325 kts 54°
2026-04-14 06:25 45.92598 16.35833 10578 ft 331 kts 47°
2026-04-14 06:25 45.94452 16.37848 11333 ft 339 kts 28°
2026-04-14 06:26 45.96694 16.38919 12120 ft 344 kts
2026-04-14 06:26 45.99068 16.38899 12882 ft 349 kts 350°
2026-04-14 06:26 46.01491 16.38194 13687 ft 353 kts 348°
2026-04-14 06:26 46.03909 16.37472 14391 ft 357 kts 348°
2026-04-14 06:27 46.06346 16.36744 15079 ft 360 kts 348°
2026-04-14 06:27 46.08780 16.36017 15749 ft 364 kts 348°
2026-04-14 06:27 46.11268 16.35278 16421 ft 367 kts 348°
2026-04-14 06:27 46.13786 16.34539 17092 ft 371 kts 348°
2026-04-14 06:28 46.16328 16.33794 17757 ft 374 kts 348°
2026-04-14 06:28 46.18890 16.33040 18399 ft 378 kts 348°
2026-04-14 06:28 46.21481 16.32276 18974 ft 382 kts 347°
2026-04-14 06:28 46.24093 16.31502 19554 ft 385 kts 347°
2026-04-14 06:29 46.26732 16.30718 20111 ft 389 kts 347°
2026-04-14 06:29 46.29398 16.29924 20668 ft 393 kts 347°
2026-04-14 06:29 46.32085 16.29122 21223 ft 397 kts 347°
2026-04-14 06:29 46.34773 16.28125 21774 ft 400 kts 339°
2026-04-14 06:30 46.37306 16.26454 22309 ft 402 kts 328°
2026-04-14 06:30 46.39593 16.24130 22854 ft 403 kts 317°
2026-04-14 06:30 46.41559 16.21234 23409 ft 404 kts 308°
2026-04-14 06:30 46.43399 16.18153 23888 ft 407 kts 308°
2026-04-14 06:31 46.45263 16.15035 24361 ft 409 kts 308°
2026-04-14 06:31 46.47134 16.11915 24838 ft 411 kts 308°
2026-04-14 06:31 46.49017 16.08779 25297 ft 413 kts 309°
2026-04-14 06:31 46.50905 16.05637 25745 ft 415 kts 309°
2026-04-14 06:32 46.52811 16.02456 26183 ft 418 kts 309°
2026-04-14 06:32 46.54721 15.99265 26612 ft 420 kts 309°
2026-04-14 06:32 46.56638 15.96053 27037 ft 422 kts 308°
2026-04-14 06:32 46.58567 15.92813 27483 ft 425 kts 308°
2026-04-14 06:33 46.60502 15.89556 27929 ft 427 kts 308°
2026-04-14 06:33 46.62453 15.86273 28360 ft 430 kts 309°
2026-04-14 06:33 46.64410 15.82977 28778 ft 432 kts 308°
2026-04-14 06:34 46.68357 15.76312 29584 ft 437 kts 308°
2026-04-14 06:34 46.70345 15.72951 29965 ft 439 kts 308°
2026-04-14 06:34 46.72342 15.69570 30314 ft 442 kts 308°
2026-04-14 06:34 46.74353 15.66159 30619 ft 444 kts 308°
2026-04-14 06:35 46.76343 15.62781 30932 ft 446 kts 308°
2026-04-14 06:35 46.78350 15.59373 31241 ft 449 kts 308°
2026-04-14 06:35 46.80393 15.55898 31547 ft 451 kts 308°
2026-04-14 06:35 46.82436 15.52420 31924 ft 451 kts 308°
2026-04-14 06:36 46.84475 15.48942 32346 ft 451 kts 308°
2026-04-14 06:36 46.86512 15.45460 32771 ft 450 kts 308°
2026-04-14 06:36 46.88545 15.41987 33209 ft 450 kts 308°
2026-04-14 06:36 46.90575 15.38516 33635 ft 449 kts 308°
2026-04-14 06:37 46.92604 15.35044 34043 ft 449 kts 308°
2026-04-14 06:37 46.94658 15.31523 34392 ft 449 kts 308°
2026-04-14 06:37 46.96653 15.28099 34735 ft 448 kts 308°
2026-04-14 06:37 46.98701 15.24575 35065 ft 448 kts 308°
2026-04-14 06:38 47.00688 15.21156 35350 ft 448 kts 308°
2026-04-14 06:38 47.02706 15.17677 35622 ft 448 kts 308°
2026-04-14 06:38 47.04723 15.14192 35898 ft 448 kts 308°
2026-04-14 06:38 47.06744 15.10694 36023 ft 450 kts 308°
2026-04-14 06:39 47.10812 15.03635 36040 ft 455 kts 308°
2026-04-14 06:39 47.14896 14.96534 36038 ft 455 kts 308°
2026-04-14 06:40 47.18973 14.89427 36030 ft 454 kts 308°
2026-04-14 06:40 47.23046 14.82323 36031 ft 454 kts 308°
2026-04-14 06:41 47.27110 14.75208 36030 ft 454 kts 308°
2026-04-14 06:41 47.31166 14.68071 36022 ft 454 kts 308°
2026-04-14 06:42 47.35225 14.60935 36041 ft 454 kts 308°
2026-04-14 06:42 47.39272 14.53807 36045 ft 453 kts 308°
2026-04-14 06:43 47.43306 14.46665 36045 ft 453 kts 307°
2026-04-14 06:43 47.47337 14.39505 36042 ft 453 kts 307°
2026-04-14 06:44 47.51362 14.32349 36056 ft 453 kts 307°
2026-04-14 06:44 47.55372 14.25187 36054 ft 452 kts 307°
2026-04-14 06:45 47.59386 14.18005 36035 ft 453 kts 307°
2026-04-14 06:45 47.63377 14.10867 36035 ft 453 kts 307°
2026-04-14 06:46 47.69386 14.00066 36033 ft 453 kts 307°
2026-04-14 06:47 47.73384 13.92838 36047 ft 453 kts 307°
2026-04-14 06:47 47.77375 13.85610 36046 ft 452 kts 307°
2026-04-14 06:48 47.81360 13.78369 36047 ft 452 kts 307°
2026-04-14 06:48 47.85348 13.71122 36040 ft 452 kts 307°
2026-04-14 06:49 47.89331 13.63861 36048 ft 453 kts 307°
2026-04-14 06:49 47.93309 13.56577 36052 ft 453 kts 307°
2026-04-14 06:50 47.97283 13.49283 36058 ft 453 kts 307°
2026-04-14 06:50 48.01250 13.41987 36056 ft 452 kts 307°
2026-04-14 06:51 48.05211 13.34681 36054 ft 452 kts 307°
2026-04-14 06:51 48.09160 13.27368 36066 ft 452 kts 306°
2026-04-14 06:52 48.13109 13.20056 36070 ft 451 kts 306°
2026-04-14 06:52 48.17051 13.12743 36065 ft 451 kts 306°
2026-04-14 06:53 48.20974 13.05409 36068 ft 451 kts 306°
2026-04-14 06:53 48.24930 12.98125 36064 ft 451 kts 308°
2026-04-14 06:54 48.29099 12.91084 36073 ft 451 kts 310°
2026-04-14 06:54 48.33324 12.84119 36071 ft 451 kts 310°
2026-04-14 06:55 48.37502 12.77096 36065 ft 451 kts 309°
2026-04-14 06:55 48.41643 12.70008 36059 ft 451 kts 309°
2026-04-14 06:56 48.45771 12.62909 36062 ft 451 kts 309°
2026-04-14 06:56 48.49909 12.55798 36060 ft 451 kts 309°
2026-04-14 06:57 48.54025 12.48731 36067 ft 451 kts 309°
2026-04-14 06:57 48.58159 12.41609 36068 ft 451 kts 309°
2026-04-14 06:58 48.62299 12.34462 36066 ft 451 kts 309°
2026-04-14 06:58 48.66425 12.27315 36063 ft 451 kts 309°
2026-04-14 06:59 48.70547 12.20136 36070 ft 452 kts 309°
2026-04-14 06:59 48.74115 12.12377 36071 ft 448 kts 293°
2026-04-14 07:00 48.75950 12.03453 36062 ft 443 kts 277°
2026-04-14 07:00 48.76947 11.94250 36063 ft 443 kts 277°
2026-04-14 07:01 48.77938 11.84978 36073 ft 443 kts 277°
2026-04-14 07:01 48.78908 11.75809 36077 ft 443 kts 277°
2026-04-14 07:02 48.79881 11.66582 36074 ft 443 kts 277°
2026-04-14 07:02 48.80849 11.57354 36076 ft 443 kts 277°
2026-04-14 07:03 48.81808 11.48117 36077 ft 443 kts 277°
2026-04-14 07:03 48.82754 11.38887 36078 ft 443 kts 277°
2026-04-14 07:04 48.83729 11.29652 36065 ft 443 kts 282°
2026-04-14 07:04 48.86075 11.21011 35937 ft 445 kts 301°
2026-04-14 07:04 48.87916 11.17246 35411 ft 444 kts 311°
2026-04-14 07:05 48.90136 11.14003 34876 ft 442 kts 316°
2026-04-14 07:05 48.92395 11.10869 34339 ft 440 kts 316°
2026-04-14 07:05 48.94653 11.07738 33751 ft 438 kts 316°
2026-04-14 07:05 48.96879 11.04649 33536 ft 426 kts 316°
2026-04-14 07:06 48.99040 11.01641 33151 ft 419 kts 316°
2026-04-14 07:06 49.01182 10.98643 32607 ft 417 kts 316°
2026-04-14 07:06 49.03311 10.95650 32088 ft 415 kts 316°
2026-04-14 07:06 49.05425 10.92667 31567 ft 414 kts 316°
2026-04-14 07:07 49.07538 10.89684 31046 ft 413 kts 316°
2026-04-14 07:07 49.09643 10.86714 30532 ft 411 kts 316°
2026-04-14 07:07 49.11737 10.83754 29991 ft 410 kts 316°
2026-04-14 07:07 49.13819 10.80806 29479 ft 406 kts 316°
2026-04-14 07:08 49.15881 10.77879 28976 ft 403 kts 316°
2026-04-14 07:08 49.17929 10.74979 28487 ft 400 kts 315°
2026-04-14 07:08 49.19959 10.72095 27974 ft 397 kts 315°
2026-04-14 07:08 49.21932 10.69152 27480 ft 395 kts 313°
2026-04-14 07:09 49.23853 10.66148 27002 ft 394 kts 312°
2026-04-14 07:09 49.25737 10.63124 26543 ft 392 kts 312°
2026-04-14 07:09 49.27607 10.60100 26082 ft 391 kts 312°
2026-04-14 07:09 49.29478 10.57089 25639 ft 389 kts 311°
2026-04-14 07:10 49.30717 10.55111 25348 ft 388 kts 312°
2026-04-14 07:10 49.32590 10.52131 24909 ft 387 kts 313°
2026-04-14 07:10 49.34461 10.49167 24476 ft 386 kts 313°
2026-04-14 07:10 49.36266 10.46138 24052 ft 384 kts 307°
2026-04-14 07:11 49.37811 10.42820 23667 ft 381 kts 303°
2026-04-14 07:11 49.39325 10.39500 23244 ft 378 kts 304°
2026-04-14 07:11 49.40825 10.36213 22859 ft 374 kts 304°
2026-04-14 07:11 49.42313 10.32955 22481 ft 371 kts 304°
2026-04-14 07:12 49.43788 10.29720 22096 ft 369 kts 304°
2026-04-14 07:12 49.45250 10.26507 21686 ft 366 kts 304°
2026-04-14 07:12 49.46709 10.23298 21343 ft 365 kts 304°
2026-04-14 07:12 49.48159 10.20114 20966 ft 363 kts 304°
2026-04-14 07:13 49.49607 10.16935 20600 ft 362 kts 304°
2026-04-14 07:13 49.51049 10.13766 20233 ft 361 kts 304°
2026-04-14 07:13 49.52480 10.10605 19865 ft 359 kts 304°
2026-04-14 07:13 49.53903 10.07447 19501 ft 359 kts 303°
2026-04-14 07:14 49.55321 10.04297 19134 ft 358 kts 303°
2026-04-14 07:14 49.56740 10.01147 18772 ft 357 kts 303°
2026-04-14 07:14 49.58152 9.98004 18409 ft 356 kts 303°
2026-04-14 07:14 49.59561 9.94866 18016 ft 355 kts 303°
2026-04-14 07:15 49.60963 9.91746 17658 ft 353 kts 303°
2026-04-14 07:15 49.62354 9.88648 17299 ft 350 kts 303°
2026-04-14 07:15 49.63739 9.85565 16944 ft 348 kts 303°
2026-04-14 07:15 49.65110 9.82504 16588 ft 346 kts 303°
2026-04-14 07:16 49.66469 9.79458 16243 ft 344 kts 303°
2026-04-14 07:16 49.67817 9.76428 15901 ft 342 kts 303°
2026-04-14 07:16 49.69160 9.73417 15556 ft 340 kts 303°
2026-04-14 07:16 49.70497 9.70416 15215 ft 338 kts 303°
2026-04-14 07:17 49.71820 9.67440 14873 ft 336 kts 303°
2026-04-14 07:17 49.73138 9.64475 14528 ft 334 kts 303°
2026-04-14 07:17 49.74452 9.61521 14192 ft 332 kts 303°
2026-04-14 07:17 49.75752 9.58587 13852 ft 330 kts 303°
2026-04-14 07:18 49.77043 9.55675 13496 ft 328 kts 303°
2026-04-14 07:18 49.78327 9.52773 13173 ft 325 kts 302°
2026-04-14 07:18 49.79600 9.49897 12832 ft 322 kts 303°
2026-04-14 07:18 49.80860 9.47050 12501 ft 320 kts 303°
2026-04-14 07:19 49.82110 9.44214 12180 ft 318 kts 302°
2026-04-14 07:19 49.83352 9.41386 11859 ft 317 kts 302°
2026-04-14 07:19 49.84587 9.38576 11537 ft 315 kts 303°
2026-04-14 07:19 49.85775 9.35788 11216 ft 313 kts 298°
2026-04-14 07:20 49.86638 9.32681 11001 ft 308 kts 285°
2026-04-14 07:20 49.87237 9.29480 10906 ft 309 kts 285°
2026-04-14 07:20 49.87846 9.26290 10755 ft 309 kts 285°
2026-04-14 07:20 49.88451 9.23143 10588 ft 307 kts 285°
2026-04-14 07:21 49.89061 9.19973 10415 ft 306 kts 285°
2026-04-14 07:21 49.89667 9.16810 10245 ft 306 kts 285°
2026-04-14 07:21 49.90262 9.13697 10082 ft 296 kts 285°
2026-04-14 07:21 49.90834 9.10688 9902 ft 286 kts 285°
2026-04-14 07:22 49.91392 9.07750 9711 ft 281 kts 285°
2026-04-14 07:22 49.91942 9.04856 9523 ft 280 kts 285°
2026-04-14 07:22 49.92491 9.01967 9345 ft 279 kts 285°
2026-04-14 07:22 49.93036 8.99086 9096 ft 277 kts 285°
2026-04-14 07:23 49.93577 8.96218 8834 ft 277 kts 285°
2026-04-14 07:23 49.94113 8.93362 8462 ft 275 kts 286°
2026-04-14 07:23 49.94899 8.90690 8129 ft 273 kts 306°
2026-04-14 07:23 49.96288 8.88715 7796 ft 272 kts 329°
2026-04-14 07:24 49.98056 8.87731 7469 ft 271 kts 352°
2026-04-14 07:24 49.99925 8.87889 7175 ft 271 kts 14°
2026-04-14 07:24 50.01597 8.89154 6880 ft 267 kts 37°
2026-04-14 07:24 50.02800 8.91290 6577 ft 262 kts 59°
2026-04-14 07:25 50.03474 8.93875 6261 ft 255 kts 69°
2026-04-14 07:25 50.04062 8.96434 5934 ft 248 kts 69°
2026-04-14 07:25 50.04640 8.98936 5577 ft 243 kts 69°
2026-04-14 07:25 50.05229 9.01361 5216 ft 234 kts 60°
2026-04-14 07:26 50.06300 9.03110 4902 ft 220 kts 26°
2026-04-14 07:26 50.07744 9.03578 4572 ft 213 kts 352°
2026-04-14 07:26 50.09137 9.02826 4367 ft 210 kts 335°
2026-04-14 07:26 50.10406 9.01808 4300 ft 202 kts 333°
2026-04-14 07:27 50.11613 9.00717 4235 ft 202 kts 323°
2026-04-14 07:27 50.12389 8.98899 4192 ft 207 kts 291°
2026-04-14 07:27 50.12735 8.96709 4131 ft 210 kts 283°
2026-04-14 07:27 50.12576 8.94451 4043 ft 217 kts 249°
2026-04-14 07:28 50.11965 8.92299 3975 ft 216 kts 251°
2026-04-14 07:28 50.11437 8.90108 3994 ft 216 kts 253°
2026-04-14 07:28 50.10921 8.87907 3988 ft 216 kts 253°
2026-04-14 07:28 50.10407 8.85716 3966 ft 212 kts 253°
2026-04-14 07:29 50.09905 8.83587 3790 ft 207 kts 253°
2026-04-14 07:29 50.09416 8.81511 3531 ft 203 kts 253°
2026-04-14 07:29 50.08933 8.79460 3256 ft 201 kts 253°
2026-04-14 07:29 50.08455 8.77432 2986 ft 198 kts 253°
2026-04-14 07:30 50.07984 8.75437 2716 ft 195 kts 253°
2026-04-14 07:30 50.07518 8.73470 2445 ft 191 kts 253°
2026-04-14 07:30 50.07071 8.71581 2193 ft 181 kts 253°
2026-04-14 07:30 50.06647 8.69793 1959 ft 167 kts 253°
2026-04-14 07:31 50.06269 8.68203 1741 ft 148 kts 253°
2026-04-14 07:31 50.05927 8.66761 1527 ft 138 kts 253°
2026-04-14 07:31 50.05621 8.65371 1320 ft 134 kts 260°
2026-04-14 07:31 50.05549 8.63957 1129 ft 131 kts 268°
2026-04-14 07:32 50.05389 8.62571 974 ft 130 kts 258°
2026-04-14 07:32 50.05109 8.61233 753 ft 129 kts 253°
2026-04-14 07:32 50.04802 8.59922 553 ft 129 kts 252°
2026-04-14 07:32 50.04492 8.58626 405 ft 127 kts 253°
2026-04-14 07:33 50.04202 8.57409 368 ft 111 kts 253°
2026-04-14 07:33 50.03968 8.56420 353 ft 76 kts 250°
2026-04-14 07:33 50.03882 8.55940 351 ft 29 kts 265°
2026-04-14 07:34 50.03946 8.55627 350 ft 10 kts
2026-04-14 07:34 50.03991 8.55700 352 ft 10 kts 63°
2026-04-14 07:34 50.04019 8.55825 352 ft 14 kts 70°
2026-04-14 07:35 50.04033 8.55886 353 ft 3 kts 69°
2026-04-14 07:35 50.04037 8.55902 351 ft 3 kts 69°
2026-04-14 07:35 50.04053 8.55954 354 ft 7 kts 56°
2026-04-14 07:35 50.04102 8.55966 355 ft 9 kts 340°
2026-04-14 07:36 50.04161 8.55933 352 ft 11 kts 342°
2026-04-14 07:36 50.04241 8.55942 354 ft 11 kts 27°
2026-04-14 07:36 50.04325 8.55937 358 ft 13 kts 335°
2026-04-14 07:36 50.04425 8.55911 357 ft 16 kts 11°
2026-04-14 07:37 50.04523 8.55954 360 ft 14 kts 17°
2026-04-14 07:37 50.04579 8.56069 359 ft 15 kts 71°
2026-04-14 07:37 50.04615 8.56220 360 ft 15 kts 69°
2026-04-14 07:37 50.04651 8.56364 361 ft 12 kts 69°
2026-04-14 07:38 50.04673 8.56460 360 ft 3 kts 70°
2026-04-14 07:38 50.04680 8.56488 359 ft 3 kts 70°
2026-04-14 07:38 50.04689 8.56522 362 ft 4 kts 63°
2026-04-14 07:38 50.04703 8.56551 359 ft 3 kts 51°
2026-04-14 07:39 50.04715 8.56573 357 ft 2 kts 53°
2026-04-14 07:39 50.04716 8.56605 356 ft 4 kts 99°
2026-04-14 07:39 50.04705 8.56640 358 ft 3 kts 116°
2026-04-14 07:39 50.04698 8.56664 359 ft 2 kts 115°
2026-04-14 07:40 50.04692 8.56682 361 ft 3 kts 115°
2026-04-14 07:40 50.04688 8.56699 356 ft 1 kts 115°
2026-04-14 07:40 50.04687 8.56700 356 ft 0 kts 115°